Retour au catalogue

SL-8 DEB

ActifLEO
NORAD 57165·DEBRIS·🇷🇺 Russia

Lancé Oct 12, 1983 depuis Plesetsk Cosmodrome

Loading…

Prochains Passages (prochaines 24 heures)

TLE

VieillissantSource: Space-Track

Époque: Sep 10, 2026, 05:57 UTC

1 57165U 83103C   26253.24846056  .00000093  00000-0  40549-4 0  9990
2 57165  74.0489 209.4045 0022500 296.2006  63.6834 14.36405611670763

Suivez SL-8 DEB en temps réel avec AllMySat

Download on the App Store